Temp
7 7 7 7 7 8 8 8 8 8 8 8 8 8 8 8 8 8 7 7 7 7 7 7 7 7 7 7 7 7 7 7 7 7 7 7 7 7 7 7 7 7 7
7 7 8 8 8 8 8 8 8 8 8 8 8 8 8 8 8 8 7 7 7 7 7 7 7 8 7 7 7 7 7 7 7 7 7 7 8 8 8 8 8 8 7
7 8 8 8 8 8 8 9 8 8 8 8 8 8 8 8 8 8 7 7 7 7 7 7 7 7 7 8 7 7 8 7 8 8 7 8 8 7 7 7 7 7 7
7 8 8 9 8 8 8 8 8 8 8 8 8 8 8 8 8 8 7 7 7 7 7 8 8 8 8 8 8 8 8 8 8 8 8 8 8 7 7 7 7 7 7
8 8 8 9 8 8 8 8 8 8 8 8 8 8 8 8 8 8 7 7 7 7 7 8 7 7 8 8 8 8 8 8 8 8 7 7 7 8 7 7 7 7 7
7 8 8 8 8 8 8 8 8 8 8 8 8 8 8 8 8 8 8 8 7 7 7 7 7 7 8 8 8 8 7 8 7 8 7 7 7 7 8 7 7 7 7
8 8 8 8 8 8 8 8 8 8 8 8 8 8 8 8 8 7 7 7 8 7 7 7 7 7 7 7 8 7 7 7 7 7 7 7 7 7 7 7 7 7 7
8 8 8 8 8 8 7 7 7 7 8 8 8 8 8 8 7 7 7 7 7 7 7 7 7 7 7 7 7 7 7 7 7 7 7 7 7 7 7 7 7 7 7
8 8 8 8 8 8 8 8 7 7 7 7 8 8 7 8 8 7 7 7 7 7 6 6 6 6 6 7 7 7 7 7 7 7 7 7 7 7 7 7 7 7 7
8 8 8 8 8 8 8 8 8 7 7 7 7 7 8 7 7 7 7 7 7 6 6 6 6 6 6 6 6 7 7 6 6 7 7 6 6 6 7 7 7 7 7
8 8 8 7 7 7 7 8 8 8 8 7 7 7 7 7 7 7 7 7 6 6 6 6 6 6 6 6 5 5 6 5 6 6 6 6 6 6 6 6 7 7 7
8 7 7 7 7 7 8 8 7 7 7 8 7 7 6 7 7 7 7 7 7 6 6 6 6 5 5 5 5 5 6 6 5 6 6 6 6 6 6 6 6 7 7
7 6 6 7 6 6 7 7 7 7 7 7 8 7 7 6 6 6 7 6 6 6 6 6 6 6 5 5 5 5 6 6 5 6 6 6 6 6 6 6 6 6 7
7 6 6 6 6 6 6 6 7 7 7 6 7 7 7 7 6 6 6 6 6 6 6 6 6 6 5 5 5 5 6 6 5 5 6 5 5 6 6 6 6 6 6
6 6 6 6 6 6 6 6 6 7 7 7 7 6 7 8 8 7 6 6 6 6 6 6 5 5 5 5 5 5 5 6 5 5 5 5 5 6 6 6 6 6 6
6 6 6 6 6 6 6 6 6 6 6 6 7 6 6 6 7 8 7 7 6 6 6 6 5 5 5 5 5 5 5 5 5 5 5 5 5 5 6 6 5 6 6
6 6 6 6 6 6 6 6 6 6 6 6 6 6 6 6 6 6 6 7 7 6 6 5 5 5 5 5 6 6 5 5 5 5 5 5 5 5 6 6 6 6 6
5 6 6 6 6 6 6 6 6 6 6 6 6 5 5 5 5 5 5 5 6 6 6 6 6 5 5 4 5 5 5 5 5 5 5 5 5 5 6 5 6 6 6
5 5 5 5 5 5 5 5 5 5 5 5 5 5 5 4 4 5 5 4 4 5 5 6 6 5 5 3 4 5 5 5 5 5 5 5 5 5 5 5 6 6 6
3 4 4 4 4 4 4 4 4 4 4 4 5 5 5 5 5 4 4 5 5 4 4 4 4 5 5 5 5 4 5 5 4 5 5 5 6 6 5 5 5 5 6
4 4 4 3 2 3 3 2 2 2 2 2 3 4 4 4 5 5 4 4 3 5 4 2 4 5 5 4 5 5 4 4 4 5 5 6 6 6 5 6 6 6 5
3 3 2 3 4 2 2 1 1 1 0 1 1 2 2 3 3 4 4 4 4 4 4 4 4 5 5 3 4 5 5 5 4 4 5 5 6 5 5 5 6 6 6
2 2 2 3 3 2 0 -1 -1 -1 -1 -1 -0 -0 0 1 1 1 2 2 3 3 4 4 4 3 4 4 4 4 4 5 5 4 4 4 5 5 5 5 5 5 6
1 1 1 1 1 0 -1 -2 -2 -2 -1 -1 -1 -1 -1 -0 -0 -0 0 0 1 1 2 3 3 2 2 3 3 3 3 4 4 5 5 4 4 4 5 5 5 4 5
1 0 -0 0 -1 -1 -2 -3 -3 -2 -2 -2 -1 -1 -1 -1 -1 -0 -0 -0 -0 -0 1 1 2 2 2 2 2 3 2 3 3 4 4 4 4 4 4 4 5 5 5
0 -0 -1 -1 -1 -2 -2 -3 -3 -3 -2 -2 -2 -1 -1 -1 -2 -1 -1 -1 -1 -1 -1 -0 1 1 2 2 3 3 3 2 2 2 3 3 3 3 4 4 4 4 5
Height
3215 3214 3213 3212 3212 3211 3210 3208 3206 3204 3202 3203 3202 3200 3199 3199 3198 3197 3196 3196 3196 3196 3196 3196 3195 3195 3195 3195 3195 3195 3195 3194 3195 3195 3195 3195 3194 3193 3193 3193 3193 3192 3192
3216 3215 3215 3213 3213 3212 3211 3210 3208 3207 3204 3203 3204 3203 3202 3201 3200 3199 3198 3198 3198 3198 3198 3198 3198 3198 3198 3198 3198 3197 3197 3197 3197 3198 3198 3197 3197 3196 3196 3196 3196 3196 3195
3218 3217 3217 3215 3214 3214 3213 3212 3210 3209 3207 3206 3205 3206 3204 3203 3202 3201 3200 3200 3200 3201 3201 3201 3201 3201 3201 3201 3200 3200 3200 3200 3200 3200 3200 3200 3200 3200 3200 3200 3200 3199 3199
3221 3219 3218 3217 3216 3215 3215 3214 3212 3211 3210 3209 3208 3207 3207 3205 3204 3203 3202 3202 3202 3203 3203 3203 3203 3203 3203 3203 3203 3203 3203 3203 3203 3203 3203 3203 3203 3203 3203 3202 3203 3202 3202
3223 3220 3219 3219 3218 3217 3217 3216 3214 3213 3212 3211 3210 3210 3209 3208 3207 3206 3205 3205 3205 3206 3206 3206 3206 3206 3206 3206 3207 3206 3206 3206 3206 3206 3206 3206 3206 3205 3205 3205 3205 3205 3205
3221 3220 3220 3219 3219 3218 3218 3218 3217 3215 3214 3213 3212 3212 3211 3211 3210 3209 3208 3207 3207 3208 3208 3208 3208 3209 3209 3209 3209 3210 3209 3208 3208 3208 3208 3208 3208 3208 3207 3207 3207 3206 3206
3218 3218 3218 3220 3220 3219 3219 3219 3218 3217 3216 3215 3214 3213 3213 3213 3212 3212 3211 3210 3210 3210 3210 3211 3211 3211 3211 3211 3211 3212 3211 3211 3211 3210 3210 3209 3210 3209 3209 3209 3209 3209 3208
3221 3220 3219 3218 3218 3219 3220 3219 3219 3218 3217 3217 3216 3215 3215 3215 3215 3215 3214 3214 3213 3213 3213 3212 3213 3213 3212 3212 3213 3213 3212 3212 3212 3212 3212 3212 3211 3211 3211 3210 3210 3210 3210
3222 3222 3221 3221 3221 3219 3217 3218 3218 3218 3218 3218 3217 3217 3217 3216 3217 3217 3217 3216 3216 3215 3215 3215 3214 3214 3213 3214 3214 3214 3214 3214 3214 3213 3213 3213 3213 3213 3212 3211 3211 3211 3211
3222 3223 3222 3222 3221 3221 3221 3220 3218 3216 3216 3217 3218 3218 3218 3218 3218 3218 3219 3218 3218 3218 3217 3217 3216 3216 3215 3215 3214 3214 3216 3215 3215 3215 3214 3214 3214 3214 3214 3213 3212 3212 3211
3222 3222 3222 3222 3221 3221 3221 3221 3220 3219 3216 3215 3216 3217 3217 3218 3219 3219 3218 3219 3220 3219 3219 3219 3219 3218 3217 3216 3216 3215 3215 3216 3216 3216 3215 3215 3214 3214 3214 3214 3213 3213 3212
3222 3221 3221 3220 3221 3221 3221 3220 3220 3219 3218 3216 3215 3215 3216 3217 3217 3219 3219 3219 3219 3220 3220 3220 3220 3220 3219 3218 3217 3216 3216 3216 3216 3216 3215 3214 3214 3214 3214 3214 3214 3214 3213
3219 3220 3219 3219 3220 3220 3219 3219 3218 3218 3217 3216 3215 3215 3214 3215 3216 3216 3218 3219 3220 3219 3219 3220 3220 3220 3220 3220 3219 3217 3217 3216 3215 3215 3214 3214 3213 3213 3213 3214 3214 3214 3214
3219 3219 3218 3218 3217 3218 3217 3216 3216 3216 3215 3214 3213 3212 3212 3212 3213 3214 3215 3216 3218 3219 3219 3218 3219 3219 3219 3219 3219 3218 3217 3217 3216 3214 3214 3214 3213 3213 3213 3213 3213 3213 3213
3216 3216 3216 3216 3215 3215 3215 3214 3214 3213 3212 3211 3211 3211 3210 3210 3210 3210 3211 3213 3214 3215 3217 3217 3218 3218 3218 3218 3217 3217 3216 3216 3215 3215 3214 3213 3213 3213 3212 3212 3212 3212 3212
3214 3214 3214 3214 3213 3213 3212 3210 3209 3209 3208 3207 3207 3207 3208 3207 3207 3207 3208 3209 3211 3211 3212 3213 3214 3214 3215 3216 3216 3216 3214 3213 3214 3214 3214 3213 3212 3212 3212 3212 3212 3211 3211
3211 3211 3210 3210 3209 3209 3208 3207 3204 3204 3203 3204 3204 3204 3204 3204 3203 3203 3204 3204 3205 3206 3206 3207 3209 3210 3211 3211 3212 3212 3212 3211 3211 3212 3212 3212 3212 3211 3210 3210 3210 3210 3210
3207 3207 3206 3205 3204 3203 3203 3202 3200 3199 3199 3199 3200 3199 3199 3198 3199 3199 3198 3199 3199 3200 3201 3200 3201 3203 3205 3207 3208 3209 3210 3209 3209 3210 3210 3210 3210 3210 3209 3209 3209 3209 3208
3205 3204 3203 3201 3200 3198 3196 3195 3193 3193 3193 3193 3194 3194 3192 3192 3193 3193 3193 3192 3194 3196 3194 3195 3195 3196 3198 3201 3203 3204 3205 3206 3206 3206 3207 3207 3207 3207 3207 3207 3207 3206 3206
3204 3202 3200 3198 3196 3195 3193 3191 3188 3186 3185 3185 3186 3187 3187 3186 3186 3186 3186 3187 3186 3186 3186 3188 3192 3192 3193 3196 3195 3196 3199 3200 3202 3202 3203 3203 3204 3204 3204 3204 3204 3204 3203
3202 3199 3197 3196 3193 3190 3188 3188 3186 3183 3181 3179 3177 3178 3179 3178 3178 3178 3178 3179 3181 3180 3178 3172 3185 3189 3190 3190 3192 3193 3191 3193 3195 3197 3197 3198 3199 3200 3200 3200 3200 3200 3201
3202 3198 3194 3190 3189 3186 3184 3182 3180 3178 3177 3174 3172 3170 3170 3170 3170 3169 3169 3170 3172 3173 3173 3173 3173 3174 3181 3183 3183 3185 3186 3189 3187 3190 3192 3191 3193 3194 3194 3196 3196 3196 3196
3199 3195 3190 3186 3186 3182 3180 3179 3178 3176 3175 3173 3171 3168 3166 3164 3164 3162 3161 3160 3161 3162 3164 3165 3166 3167 3171 3173 3172 3174 3176 3179 3181 3183 3184 3185 3186 3187 3189 3189 3191 3191 3191
3197 3193 3189 3183 3182 3179 3176 3175 3173 3171 3169 3168 3167 3166 3163 3160 3159 3157 3156 3153 3154 3154 3155 3157 3159 3159 3159 3161 3164 3166 3167 3169 3172 3172 3175 3177 3179 3180 3182 3183 3183 3184 3185
3195 3193 3189 3185 3181 3178 3175 3173 3171 3170 3167 3164 3163 3162 3161 3157 3155 3153 3151 3149 3147 3147 3147 3147 3148 3150 3151 3153 3156 3158 3159 3158 3161 3163 3162 3167 3169 3172 3173 3174 3175 3177 3178
3194 3191 3188 3184 3181 3178 3174 3172 3169 3168 3166 3164 3161 3159 3157 3155 3152 3149 3148 3145 3143 3141 3140 3140 3141 3142 3141 3143 3144 3146 3149 3150 3151 3154 3154 3156 3156 3163 3164 3166 3165 3167 3171
Wind_Speed
7 8 9 10 9 9 11 12 14 15 15 13 12 13 13 12 12 12 14 15 15 16 15 14 13 13 13 13 14 14 14 14 13 12 12 12 14 16 17 18 18 18 18
6 8 8 9 10 11 11 12 14 13 14 14 12 13 13 12 12 14 16 16 16 15 14 14 13 12 12 13 14 14 15 13 12 13 13 13 14 16 18 18 18 17 17
6 8 8 10 11 11 11 12 13 13 13 13 13 12 12 12 12 15 16 16 16 15 13 13 13 12 12 13 13 13 13 13 13 14 14 13 14 16 16 16 15 15 15
6 9 9 10 11 11 10 11 12 13 13 12 12 11 11 11 12 14 16 16 16 15 13 12 13 11 11 12 12 12 12 13 13 14 14 13 12 13 13 13 13 13 14
9 12 12 12 12 11 10 10 11 11 12 12 10 10 10 10 11 13 15 16 15 14 12 12 11 10 10 11 11 13 13 13 13 12 13 11 10 11 11 11 12 13 13
12 13 13 13 12 12 11 10 11 11 11 11 11 9 9 9 10 12 13 15 15 13 12 12 11 10 10 10 13 14 12 12 11 11 11 10 9 9 10 10 10 12 13
14 15 14 13 12 12 11 11 10 10 11 11 9 9 8 7 8 9 11 14 14 13 12 12 11 10 10 10 12 12 10 11 9 9 10 9 7 7 8 9 10 11 11
10 11 12 13 13 12 11 10 10 9 9 10 9 8 8 7 6 8 10 11 13 13 12 11 10 8 8 8 9 10 8 8 8 8 8 7 6 6 7 8 9 9 9
7 7 7 9 8 9 11 9 9 9 8 8 8 7 6 6 5 5 8 10 11 11 10 9 8 7 6 5 5 6 7 4 4 5 5 5 5 5 5 6 7 7 7
5 5 5 5 5 4 4 5 7 8 8 7 7 7 6 4 4 5 6 7 8 8 8 7 6 5 4 4 3 2 5 2 2 0 3 3 2 3 3 4 4 4 4
2 2 2 1 1 2 2 1 1 1 4 5 5 5 4 3 1 4 6 5 5 6 6 5 4 3 3 2 2 1 1 1 3 3 2 2 1 1 2 2 2 2 2
5 7 4 6 3 4 5 2 1 2 3 1 2 4 2 1 1 3 6 6 6 5 4 4 3 3 4 4 4 6 3 3 4 5 5 3 3 2 1 0 1 1 1
7 6 6 6 4 10 7 5 5 3 5 7 4 3 3 2 2 4 8 7 8 8 7 6 6 6 7 7 8 11 8 3 3 6 5 3 3 3 3 2 2 2 2
10 10 11 12 12 11 13 11 11 9 8 9 8 8 7 7 6 7 11 11 11 11 11 10 9 9 9 9 8 13 15 9 8 7 6 5 5 4 5 4 3 3 3
11 11 12 13 14 15 16 16 16 18 14 14 13 11 11 11 11 12 12 13 15 14 14 14 13 12 12 12 11 11 15 13 11 11 10 7 7 7 7 6 6 5 5
14 14 15 16 16 16 16 16 16 18 20 19 18 17 16 16 15 16 15 15 16 18 17 18 17 17 16 16 15 13 14 14 13 12 12 12 10 10 10 9 8 8 8
18 16 17 19 20 21 20 21 23 22 22 21 24 24 23 21 20 20 19 18 20 21 22 21 21 22 20 20 18 15 14 16 15 13 13 13 14 13 12 12 11 11 10
15 17 20 22 24 24 24 25 27 27 27 27 25 29 29 29 28 26 25 24 23 24 25 27 25 24 22 21 18 18 17 17 16 13 13 13 12 14 13 12 14 13 13
14 14 14 15 15 18 22 25 29 30 31 30 29 28 31 34 35 34 33 29 31 27 27 28 28 27 25 25 25 23 22 23 21 19 16 14 13 11 11 14 14 13 15
15 16 16 17 16 15 16 18 21 22 27 31 33 33 33 34 34 36 38 38 35 33 35 25 28 30 28 29 28 26 27 25 26 25 21 18 15 12 12 12 14 15 15
21 22 19 16 16 19 18 16 16 18 20 22 25 32 35 36 38 37 37 36 38 38 35 35 31 44 32 30 32 32 29 28 30 29 27 24 19 16 16 16 15 15 15
24 22 19 22 20 19 18 19 19 18 20 21 22 23 24 28 35 39 42 41 38 35 40 32 32 34 42 34 35 34 36 36 32 31 29 30 25 21 20 18 17 16 16
25 24 25 25 23 21 17 15 16 18 17 17 19 22 23 24 24 26 32 37 39 38 36 32 29 33 42 44 42 40 38 41 41 32 32 33 31 28 25 24 20 16 16
24 24 25 28 27 19 16 16 19 20 19 20 20 20 22 23 23 24 25 25 27 28 27 29 32 38 46 48 44 44 50 45 49 45 35 32 32 30 26 22 21 19 17
21 21 22 24 23 19 18 18 18 18 20 21 20 20 19 21 22 21 22 23 23 22 27 27 32 36 44 38 48 51 49 50 50 49 45 39 38 31 28 29 29 26 21
19 19 19 20 20 19 18 19 20 20 21 23 25 25 24 24 24 22 21 21 20 21 24 29 29 31 37 40 46 39 51 44 47 49 52 52 43 38 36 32 34 32 28
Wind_Direction
99 114 114 114 104 90 87 89 91 93 91 85 84 90 91 90 89 94 98 100 104 104 105 106 107 112 111 110 110 110 106 100 99 96 91 88 89 88 86 86 87 88 91
101 106 106 104 97 92 89 88 88 85 86 83 81 86 89 91 95 102 103 103 103 102 106 110 112 111 108 111 109 105 102 102 100 95 90 89 91 90 88 87 88 88 86
112 107 98 97 92 88 89 88 85 79 75 81 84 85 91 94 100 108 106 106 104 104 105 108 107 105 105 102 101 100 104 104 98 96 91 89 90 90 89 88 86 84 83
121 100 95 90 89 86 83 85 85 81 75 73 84 90 91 95 104 110 108 107 106 106 107 104 101 98 97 99 103 107 105 104 103 100 97 92 88 88 90 90 89 89 86
113 96 91 87 83 83 81 75 75 75 77 76 75 82 89 95 104 107 108 108 106 106 107 104 101 102 101 98 101 105 112 109 104 100 96 90 89 89 84 84 88 86 82
108 97 92 90 87 82 76 70 65 60 61 69 77 70 77 90 98 109 113 114 112 112 109 108 109 106 103 105 103 102 110 108 106 103 92 87 82 86 88 87 86 89 88
127 115 107 97 89 82 76 69 62 57 53 52 64 75 70 79 98 108 115 117 117 117 115 112 110 108 104 103 100 97 108 108 103 96 93 90 79 83 88 90 92 90 86
128 123 118 117 112 98 85 75 64 57 53 54 51 61 80 81 95 115 119 118 118 118 118 114 112 108 105 103 101 110 108 102 103 94 89 89 84 85 91 97 99 94 91
140 126 121 113 106 116 120 112 97 73 53 49 51 52 58 85 97 113 124 124 123 122 121 121 122 120 112 97 99 105 100 93 99 104 102 96 95 78 87 100 105 102 97
167 156 145 128 119 105 87 108 122 115 98 66 47 48 47 57 112 135 136 134 133 132 132 133 133 129 123 109 79 59 97 68 20 223 134 122 105 87 73 95 104 100 97
111 281 118 238 152 124 135 102 63 74 120 111 91 54 51 50 55 166 162 164 159 154 149 149 157 168 173 162 154 241 2 3 278 269 238 201 179 124 76 55 111 113 98
173 249 164 289 324 275 276 250 294 341 310 207 131 107 55 62 154 236 200 195 193 198 196 197 210 236 247 251 247 246 219 180 235 249 231 218 220 231 164 344 330 301 10
245 253 282 279 202 274 293 288 271 281 284 287 266 202 172 186 207 240 232 227 230 215 215 235 240 254 270 283 290 291 288 278 275 264 249 247 242 227 228 220 264 275 287
252 255 264 262 274 274 278 284 283 254 249 245 262 260 224 208 207 217 236 224 236 248 242 234 243 249 255 267 282 292 296 301 293 284 271 256 255 247 251 240 239 257 267
261 266 270 274 274 271 275 276 277 283 274 254 244 248 267 256 232 218 224 232 228 234 247 251 253 253 256 259 268 267 288 299 305 309 286 262 267 260 248 249 250 252 250
269 268 269 270 272 275 281 284 280 276 275 271 266 259 254 258 260 253 241 232 236 236 239 247 253 257 256 260 265 265 276 297 303 307 304 290 274 270 269 257 248 253 253
277 277 274 275 275 276 274 275 279 279 278 274 264 266 260 258 258 260 258 246 241 235 234 239 244 251 258 263 266 268 272 275 284 294 300 298 294 281 267 268 259 248 245
287 279 275 277 276 274 272 269 270 271 273 274 274 264 259 260 258 255 256 260 246 244 243 238 237 242 251 259 261 268 276 274 273 277 285 293 294 289 281 272 272 263 251
313 307 300 294 288 286 281 276 271 269 267 266 267 268 266 264 261 258 255 250 257 255 246 249 247 245 244 255 261 264 267 272 273 274 276 278 278 283 288 287 281 270 265
335 327 322 312 302 296 295 293 290 285 277 269 263 261 263 267 268 267 263 258 246 248 243 251 265 258 252 254 251 253 258 261 265 270 271 269 267 267 276 279 284 282 267
342 337 328 317 307 304 302 296 287 287 289 289 285 271 265 265 267 269 269 269 266 265 261 238 250 272 263 262 263 260 253 255 257 262 270 270 266 274 276 271 269 268 270
346 344 336 320 319 310 303 305 311 312 316 315 313 307 298 281 273 272 271 270 267 268 266 267 266 255 248 263 265 265 267 258 253 256 262 267 267 270 273 276 269 261 255
348 346 343 331 337 329 316 317 313 313 311 312 310 314 316 316 313 300 286 279 278 273 269 267 254 244 250 244 245 258 262 268 264 255 257 264 267 269 271 270 260 251 250
348 350 345 338 347 343 327 328 327 324 320 321 331 334 330 332 333 327 320 309 283 276 272 267 249 250 251 246 243 250 262 263 264 264 254 255 261 265 264 260 251 246 248
346 350 349 343 353 354 337 332 325 331 338 337 338 338 336 332 330 329 325 321 312 289 268 262 257 248 250 252 250 254 251 256 253 260 266 258 255 250 249 250 259 257 248
340 344 344 346 352 354 348 343 337 330 322 319 323 326 328 330 330 328 325 321 316 306 283 268 266 259 254 256 255 251 244 251 240 250 259 261 255 252 246 244 245 249 255